{"data":{"norad_id":65866,"intl_designator":"2025-223N","name":"STARLINK-35312","alt_names":[],"object_type":"PAYLOAD","status":"ACTIVE","operator":null,"country":"US","launch_date":"2025-10-03","launch_site_code":"AFWTR","launch_vehicle":null,"mission":null,"orbit_class":"UNKNOWN","rcs_meters":null,"size_class":null,"mass_kg":null,"dimensions":null,"purposes":["comms"],"wikipedia_slug":null,"has_3d_model":false,"image_url":null,"decayed_at":null,"tle_current":{"epoch":"2026-05-25T03:29:58.054848Z","epoch_age_seconds":65936,"freshness":"FRESH","line1":"1 65866U 25223N   26145.14581082  .00030719  00000+0  91636-3 0  9999","line2":"2 65866  53.1597 298.8852 0001342  86.1529 273.9627 15.34407903 35916","mean_motion":15.34407903,"eccentricity":0.0001342,"inclination_deg":53.1597,"raan_deg":298.8852,"arg_perigee_deg":86.1529,"mean_anomaly_deg":273.9627,"bstar":0.00091636,"rev_number":3591,"period_min":93.847274716494,"perigee_km":461.76171331847,"apogee_km":463.59778853442,"semimajor_km":6840.8167509264,"source":"CELESTRAK","updated_at":"2026-05-25T13:38:20.974586Z"}}}